Wind_Speed
54 51 48 50 46 45 39 34 33 31 30 31 30 24 12 17 22 24 16 19 17 17 11 7 6 12 14 13 20 20 23 23 24 22 23 22 24 23 23 23 22 21 20 19
55 52 57 53 48 44 39 36 36 34 30 33 31 28 21 19 23 25 25 21 16 20 17 9 10 10 10 12 20 23 23 24 24 22 23 23 24 23 23 21 19 18 17 15
60 66 58 54 50 46 42 41 43 40 38 35 36 31 29 32 26 22 20 31 24 22 20 12 18 15 13 14 20 25 24 24 23 21 20 21 20 20 20 19 17 15 13 11
65 66 60 57 49 49 44 47 47 44 38 34 39 35 36 31 35 30 33 33 30 25 20 15 19 19 10 17 24 28 28 26 25 23 21 21 20 17 14 14 14 13 12 10
63 66 62 54 55 53 53 52 49 45 39 39 39 38 34 34 36 40 38 32 25 21 19 20 19 21 14 21 26 30 30 30 27 25 24 22 21 20 16 14 14 14 11 9
74 74 67 58 62 56 62 53 47 42 40 37 38 37 39 36 42 47 43 39 37 26 23 24 21 25 22 20 29 33 32 31 30 29 27 25 24 21 19 17 16 15 13 11
79 73 67 63 62 60 56 50 47 41 35 36 45 44 41 44 47 49 50 50 37 27 35 22 25 24 30 22 26 36 36 35 32 29 29 28 27 24 20 19 17 14 12 9
82 77 67 67 63 65 62 57 48 44 47 50 48 41 48 49 49 43 43 52 38 33 30 24 24 28 33 28 26 36 39 36 35 32 30 29 27 25 22 20 18 14 12 10
86 78 83 79 72 72 66 53 55 55 52 42 43 46 46 47 45 44 44 41 40 35 32 28 23 29 33 32 29 35 43 41 36 32 31 30 27 25 24 22 18 14 13 9
93 97 91 83 83 77 66 65 59 53 43 43 48 47 44 40 42 47 45 42 41 37 33 28 23 29 33 34 28 35 46 44 38 37 34 31 29 27 25 22 18 16 13 11
101 99 93 96 85 71 71 67 61 56 53 49 49 47 43 41 42 44 49 50 45 41 38 30 29 26 31 36 34 34 48 47 46 42 37 34 31 30 26 22 19 15 12 12
106 98 101 89 74 73 72 67 63 56 55 51 51 47 40 38 40 44 47 52 50 45 40 36 31 25 27 32 38 39 49 52 48 41 38 36 35 32 28 24 20 16 14 13
103 102 98 91 88 82 72 62 60 60 60 52 50 48 40 41 40 40 45 52 54 53 47 38 33 29 30 31 36 41 51 53 48 45 43 41 38 32 28 25 22 20 20 19
96 97 94 90 79 77 70 65 62 61 56 56 52 51 43 41 40 42 48 55 58 54 49 42 37 31 30 33 33 40 49 51 49 48 46 42 35 32 32 30 27 27 25 23
94 90 89 88 84 78 76 72 68 60 60 57 57 51 47 41 42 43 47 55 59 58 51 46 40 35 31 35 36 38 47 49 47 47 45 42 38 35 33 32 31 30 28 27
91 95 91 90 87 85 84 79 71 68 65 63 60 54 51 47 42 40 42 54 58 58 53 48 45 41 35 37 40 40 44 45 44 45 45 42 39 37 36 34 33 32 30 29
95 94 87 89 92 93 81 74 71 70 69 65 60 57 55 50 48 45 44 49 60 60 56 55 48 45 39 38 42 44 46 46 44 44 43 40 39 39 38 36 35 34 32 32
96 93 87 96 98 90 80 80 75 73 72 69 69 70 62 59 56 47 43 42 49 55 59 54 52 48 44 41 40 42 42 44 44 43 42 39 39 38 37 37 36 36 35 35
95 94 96 101 96 87 87 84 82 81 81 82 82 80 74 72 58 47 46 45 45 48 50 55 52 48 46 45 41 39 40 41 43 45 45 43 41 38 36 36 36 35 36 36
97 98 102 97 91 94 99 93 89 89 88 84 86 86 80 69 59 51 45 40 41 34 29 34 52 56 51 47 45 42 41 42 44 46 42 37 36 38 38 38 37 37 37 36
101 104 105 99 99 103 102 95 92 95 95 88 90 92 81 60 49 47 43 45 40 36 32 30 39 53 58 53 49 48 48 48 49 44 41 42 42 41 41 39 37 36 37 38
104 106 105 101 99 102 101 99 99 94 94 92 93 94 76 60 51 49 49 46 41 39 37 35 33 41 54 59 56 52 50 50 48 44 42 42 43 43 42 42 41 41 41 41
104 113 110 111 110 108 108 108 105 100 99 97 95 93 76 63 55 56 53 55 50 44 45 41 37 34 41 53 56 57 57 56 51 47 46 47 47 47 46 46 46 44 42 39
99 106 109 107 108 109 108 109 108 104 104 100 95 87 74 66 61 62 60 60 58 53 52 48 42 39 35 36 42 55 61 61 58 55 55 54 53 52 51 50 46 42 39 39
96 106 108 108 105 104 105 103 104 104 102 96 91 85 76 70 67 65 64 61 61 65 62 55 50 48 45 41 40 40 45 50 51 54 57 58 57 56 53 48 44 41 39 41
88 100 106 104 105 102 101 99 98 99 91 91 86 82 77 73 71 69 66 65 70 72 64 56 55 56 55 52 49 47 45 42 42 40 41 43 45 45 43 42 41 42 43 44
Wind_Direction
239 239 244 241 244 249 253 255 247 252 258 258 260 261 197 199 186 201 232 247 279 319 315 270 149 150 163 173 180 175 158 156 152 151 145 145 146 145 139 136 132 127 124 119
238 243 242 240 245 249 249 247 243 244 248 250 248 251 233 207 202 214 236 242 239 276 299 239 176 170 185 202 181 178 163 159 158 155 146 149 150 148 143 140 138 136 130 120
241 243 241 243 245 248 246 238 236 239 242 248 253 251 248 224 214 205 222 204 237 264 273 235 195 180 207 205 188 180 169 164 161 161 155 154 154 153 153 153 144 136 133 124
237 244 242 243 242 239 236 234 235 237 243 249 252 250 248 238 217 194 208 225 244 248 249 228 210 185 198 212 192 186 175 171 170 170 169 169 165 162 159 157 164 155 145 138
234 237 236 234 232 230 231 232 235 237 243 249 250 247 238 241 232 220 208 217 222 233 231 229 206 192 188 212 203 194 181 175 176 176 177 180 177 177 177 174 174 166 159 150
235 236 235 233 230 229 234 233 236 238 247 251 240 238 244 235 230 223 225 231 241 245 239 238 209 200 194 210 204 200 189 182 181 181 178 181 186 186 185 178 172 167 160 156
239 239 236 235 234 233 235 236 241 244 239 223 225 230 239 237 230 220 220 222 234 237 234 233 215 210 203 208 216 204 196 189 189 185 183 185 188 191 187 182 180 177 173 168
234 234 236 235 233 231 230 231 233 230 225 223 230 230 228 234 237 235 225 222 226 227 232 233 219 217 210 206 219 213 201 198 195 193 191 188 189 186 185 191 189 187 190 198
236 233 231 227 226 230 229 231 230 227 227 233 233 231 239 247 249 241 230 225 216 224 231 234 221 221 218 207 216 219 204 200 199 199 199 195 193 190 192 195 197 204 214 225
222 224 225 225 223 224 226 226 227 232 234 229 233 235 235 242 241 234 223 214 213 225 229 230 222 227 216 213 213 217 206 201 198 202 203 203 200 199 202 204 209 218 230 239
227 229 224 224 220 223 226 228 229 231 228 228 232 233 226 229 231 231 223 209 217 214 226 225 224 226 218 217 212 217 209 201 203 206 205 205 206 207 210 213 219 226 240 250
227 227 230 228 226 224 225 225 225 226 226 227 229 229 225 229 229 227 222 213 214 214 222 224 225 221 217 217 214 208 211 206 207 207 209 208 212 213 216 222 229 240 251 258
223 223 226 228 224 223 226 224 226 224 225 224 224 223 218 221 224 226 217 217 214 214 216 219 224 220 217 212 217 208 211 209 208 209 213 214 215 218 224 232 239 242 253 256
221 222 225 229 231 229 224 226 226 225 226 228 226 225 223 225 224 218 213 214 216 217 211 216 221 223 222 212 215 213 212 213 211 213 216 219 220 223 229 234 241 245 253 257
217 220 221 223 228 228 224 219 223 227 223 225 224 223 224 219 222 219 215 214 219 217 214 215 217 221 223 216 208 213 214 216 217 219 223 224 224 227 233 238 243 247 253 257
212 216 215 216 219 220 222 223 216 217 219 219 222 223 222 218 216 215 217 211 216 221 215 213 218 219 220 221 209 208 215 219 221 223 226 227 228 231 235 239 246 251 254 257
211 213 211 213 216 220 218 220 222 218 218 220 223 227 226 226 221 212 218 215 215 219 217 211 216 220 221 222 219 210 210 217 225 227 227 227 229 233 238 241 245 251 254 259
207 210 208 211 214 217 216 215 217 219 217 221 220 224 226 223 223 211 215 221 218 219 221 215 212 219 222 227 222 221 218 218 224 230 233 232 233 236 241 245 246 249 254 257
207 207 207 211 211 210 216 214 212 214 215 215 216 217 218 221 224 218 213 222 224 222 224 224 217 217 222 225 229 231 230 229 229 231 232 233 236 241 245 246 247 250 254 260
205 206 209 212 208 207 213 214 212 214 214 216 220 224 225 223 221 222 209 211 227 226 222 222 223 220 222 225 228 230 228 228 232 233 234 237 237 239 242 245 249 253 257 264
203 205 207 209 209 209 211 213 213 214 217 215 221 226 229 230 229 226 225 206 223 228 230 227 222 222 223 226 227 230 232 232 232 235 236 239 242 245 247 249 251 254 259 266
200 203 206 207 211 211 212 213 215 216 220 220 222 227 228 225 218 221 228 228 215 233 234 235 233 223 220 223 225 229 234 238 241 242 243 245 244 245 249 252 256 259 265 268
201 201 205 206 207 210 211 212 213 214 218 222 224 227 226 225 216 213 217 227 221 220 229 233 232 229 227 224 226 229 232 235 238 240 240 241 243 246 249 253 256 259 265 265
202 202 206 209 211 211 211 213 212 216 216 219 223 227 227 226 221 216 214 220 226 221 218 226 232 236 233 228 227 229 233 236 236 237 239 241 244 247 248 252 255 256 255 254
201 203 205 209 214 214 216 216 218 215 218 220 221 224 225 224 224 222 219 222 228 232 226 220 225 234 235 232 232 230 229 231 237 239 241 243 246 247 247 246 246 246 247 250
204 203 206 209 214 217 220 221 220 222 220 221 221 223 224 223 223 224 224 224 226 232 234 226 221 224 233 235 233 235 236 232 229 230 234 235 237 239 240 241 244 244 245 249
Height
10904 10915 10918 10919 10925 10929 10937 10941 10944 10945 10945 10945 10947 10953 10957 10952 10953 10957 10959 10962 10965 10969 10965 10968 10971 10972 10976 10978 10982 10986 10988 10991 10993 10997 10999 11002 11005 11007 11008 11009 11010 11012 11013 11013
10896 10901 10898 10909 10916 10921 10928 10932 10935 10936 10938 10937 10941 10947 10953 10952 10949 10955 10955 10955 10959 10964 10969 10969 10970 10972 10977 10981 10983 10986 10989 10992 10995 10998 11001 11005 11007 11008 11010 11012 11012 11014 11015 11016
10880 10870 10891 10899 10906 10911 10917 10921 10922 10926 10928 10931 10933 10941 10946 10947 10949 10948 10946 10956 10958 10954 10964 10966 10969 10971 10977 10981 10983 10986 10990 10993 10996 10999 11002 11005 11008 11010 11012 11014 11014 11015 11017 11019
10861 10861 10878 10884 10894 10897 10904 10905 10910 10918 10922 10927 10925 10932 10938 10943 10946 10948 10943 10948 10952 10954 10960 10964 10966 10967 10973 10980 10982 10985 10988 10992 10995 10999 11002 11005 11008 11011 11012 11014 11015 11017 11018 11020
10852 10843 10856 10870 10873 10882 10887 10891 10900 10908 10915 10918 10921 10924 10931 10936 10942 10945 10944 10945 10948 10952 10957 10961 10962 10965 10969 10976 10981 10984 10987 10989 10993 10997 11001 11004 11008 11010 11012 11014 11016 11017 11018 11019
10823 10824 10841 10857 10856 10871 10867 10884 10892 10900 10906 10913 10913 10916 10916 10927 10931 10938 10942 10942 10945 10948 10953 10957 10955 10960 10965 10972 10977 10981 10985 10987 10990 10993 10998 11002 11005 11008 11011 11013 11015 11017 11018 11019
10803 10817 10831 10840 10846 10856 10864 10874 10882 10890 10896 10899 10897 10905 10904 10906 10914 10926 10935 10942 10939 10945 10951 10949 10950 10956 10961 10968 10973 10978 10982 10984 10988 10991 10994 10998 11002 11005 11009 11011 11013 11015 11017 11018
10786 10798 10819 10822 10834 10839 10846 10855 10866 10873 10876 10881 10887 10900 10892 10894 10900 10914 10927 10936 10936 10941 10941 10943 10947 10952 10957 10963 10969 10974 10979 10983 10985 10989 10992 10995 10999 11003 11007 11009 11012 11014 11015 11016
10765 10789 10783 10791 10807 10815 10832 10851 10849 10851 10863 10878 10883 10884 10888 10892 10899 10907 10914 10922 10931 10932 10936 10940 10944 10948 10953 10958 10963 10969 10974 10978 10983 10988 10990 10993 10996 11000 11003 11007 11010 11012 11013 11016
10730 10727 10746 10769 10776 10795 10820 10822 10833 10846 10863 10870 10867 10874 10881 10887 10893 10899 10908 10918 10923 10926 10929 10935 10939 10943 10947 10953 10958 10964 10968 10972 10978 10981 10985 10989 10993 10997 11000 11004 11007 11009 11011 11013
10710 10722 10732 10730 10755 10792 10802 10815 10826 10835 10844 10852 10857 10863 10872 10878 10883 10890 10898 10907 10913 10923 10923 10929 10933 10937 10941 10947 10952 10958 10962 10967 10969 10973 10979 10985 10990 10993 10997 11001 11004 11006 11008 11009
10681 10709 10711 10738 10774 10779 10785 10800 10810 10824 10830 10839 10842 10854 10867 10871 10875 10881 10889 10898 10906 10914 10917 10921 10926 10931 10934 10939 10944 10948 10956 10960 10965 10971 10975 10980 10983 10989 10993 10996 11000 11003 11006 11007
10659 10686 10701 10727 10739 10753 10774 10794 10802 10808 10811 10827 10832 10840 10855 10858 10864 10871 10878 10886 10894 10903 10910 10914 10917 10923 10926 10931 10936 10942 10947 10954 10960 10965 10968 10972 10977 10984 10989 10993 10996 10999 11000 11002
10646 10670 10698 10715 10745 10758 10769 10780 10789 10796 10807 10812 10822 10831 10844 10849 10857 10861 10865 10873 10880 10888 10902 10907 10910 10915 10919 10923 10930 10936 10942 10949 10954 10958 10962 10968 10975 10980 10983 10986 10990 10993 10996 10998
10633 10665 10689 10704 10723 10739 10750 10759 10771 10790 10794 10802 10801 10821 10830 10840 10844 10851 10856 10863 10869 10878 10892 10901 10905 10910 10913 10918 10921 10928 10936 10943 10949 10954 10958 10964 10969 10973 10977 10980 10984 10987 10990 10992
10623 10636 10663 10685 10702 10714 10724 10742 10761 10770 10779 10785 10789 10809 10817 10828 10837 10844 10846 10853 10860 10866 10882 10892 10897 10902 10908 10912 10915 10921 10929 10936 10942 10947 10952 10958 10962 10966 10969 10973 10977 10980 10983 10984
10603 10620 10654 10676 10681 10688 10723 10742 10755 10763 10767 10778 10783 10798 10808 10818 10827 10834 10836 10843 10849 10857 10868 10881 10889 10896 10902 10905 10910 10916 10920 10928 10934 10940 10945 10951 10955 10958 10961 10966 10969 10972 10975 10976
10587 10613 10642 10647 10656 10684 10718 10724 10738 10750 10759 10767 10767 10770 10793 10800 10808 10825 10830 10835 10843 10851 10861 10871 10882 10889 10897 10901 10908 10913 10920 10925 10928 10933 10938 10945 10949 10952 10955 10959 10962 10964 10966 10967
10578 10603 10616 10618 10647 10682 10693 10704 10718 10731 10733 10732 10734 10744 10763 10775 10798 10817 10826 10833 10841 10849 10857 10865 10877 10884 10890 10897 10903 10911 10916 10919 10922 10925 10930 10936 10942 10946 10949 10952 10955 10957 10958 10959
10562 10584 10594 10614 10646 10658 10657 10678 10699 10708 10711 10723 10723 10727 10749 10771 10793 10808 10822 10831 10836 10843 10849 10854 10862 10871 10878 10887 10894 10899 10902 10909 10912 10914 10922 10930 10934 10937 10940 10943 10946 10949 10950 10952
10546 10564 10575 10600 10614 10626 10638 10663 10682 10687 10691 10711 10711 10710 10736 10779 10798 10808 10817 10826 10831 10836 10840 10844 10849 10858 10869 10878 10884 10888 10892 10896 10898 10907 10916 10921 10924 10927 10931 10934 10937 10939 10941 10944
10523 10550 10568 10589 10602 10615 10640 10653 10660 10680 10689 10701 10702 10701 10736 10772 10794 10804 10809 10817 10830 10831 10833 10836 10841 10847 10855 10861 10869 10878 10883 10887 10895 10903 10908 10912 10914 10917 10920 10924 10927 10929 10931 10933
10509 10517 10542 10549 10565 10589 10610 10623 10636 10654 10669 10681 10691 10698 10736 10761 10781 10792 10801 10805 10815 10823 10822 10827 10834 10839 10844 10852 10863 10866 10868 10874 10883 10889 10894 10897 10900 10905 10909 10911 10914 10917 10919 10919
10499 10527 10534 10548 10559 10573 10586 10594 10616 10634 10648 10668 10687 10708 10734 10753 10766 10777 10786 10791 10799 10808 10813 10820 10826 10831 10837 10842 10846 10850 10857 10863 10870 10875 10879 10883 10888 10891 10896 10900 10903 10904 10905 10907
10487 10509 10526 10547 10553 10573 10586 10603 10617 10633 10649 10668 10685 10704 10724 10739 10752 10764 10775 10783 10787 10788 10799 10812 10819 10822 10827 10833 10836 10841 10844 10851 10857 10863 10866 10871 10874 10878 10883 10888 10888 10890 10894 10895
10485 10506 10525 10548 10549 10572 10592 10605 10618 10630 10651 10664 10681 10698 10712 10725 10739 10751 10761 10768 10768 10773 10785 10799 10808 10813 10817 10822 10827 10830 10835 10841 10845 10849 10853 10858 10861 10865 10871 10875 10877 10879 10882 10883